Year,Month,Day,Hour,Minute,Value (Times are PST for temperature in C)
2008,06,30,00,00,23.80
2008,06,30,00,01,23.70
2008,06,30,00,02,23.70
2008,06,30,00,03,23.70
2008,06,30,00,04,23.70
2008,06,30,00,05,23.70
2008,06,30,00,06,23.70
2008,06,30,00,07,23.70
2008,06,30,00,08,23.60
2008,06,30,00,09,23.60
2008,06,30,00,10,23.50
2008,06,30,00,11,23.40
2008,06,30,00,12,23.40
2008,06,30,00,13,23.30
2008,06,30,00,14,23.30
2008,06,30,00,15,23.20
2008,06,30,00,16,23.20
2008,06,30,00,17,23.10
2008,06,30,00,18,23.00
2008,06,30,00,19,22.90
2008,06,30,00,20,22.90
2008,06,30,00,21,22.90
2008,06,30,00,22,22.90
2008,06,30,00,23,22.90
2008,06,30,00,24,22.90
2008,06,30,00,25,22.90
2008,06,30,00,26,22.90
2008,06,30,00,27,22.90
2008,06,30,00,28,22.80
2008,06,30,00,29,22.70
2008,06,30,00,30,22.60
2008,06,30,00,31,22.50
2008,06,30,00,32,22.40
2008,06,30,00,33,22.30
2008,06,30,00,34,22.30
2008,06,30,00,35,22.20
2008,06,30,00,36,22.10
2008,06,30,00,37,22.10
2008,06,30,00,38,22.10
2008,06,30,00,39,22.10
2008,06,30,00,40,22.10
2008,06,30,00,41,22.00
2008,06,30,00,42,22.00
2008,06,30,00,43,22.00
2008,06,30,00,44,22.00
2008,06,30,00,45,22.00
2008,06,30,00,46,22.00
2008,06,30,00,47,22.00
2008,06,30,00,48,22.00
2008,06,30,00,49,22.00
2008,06,30,00,50,22.00
2008,06,30,00,51,22.00
2008,06,30,00,52,22.00
2008,06,30,00,53,22.00
2008,06,30,00,54,22.10
2008,06,30,00,55,22.20
2008,06,30,00,56,22.20
2008,06,30,00,57,22.30
2008,06,30,00,58,22.30
2008,06,30,00,59,22.30
2008,06,30,01,00,22.40
2008,06,30,01,01,22.40
2008,06,30,01,02,22.40
2008,06,30,01,03,22.40
2008,06,30,01,04,22.50
2008,06,30,01,05,22.50
2008,06,30,01,06,22.50
2008,06,30,01,07,22.60
2008,06,30,01,08,22.60
2008,06,30,01,09,22.60
2008,06,30,01,10,22.60
2008,06,30,01,11,22.60
2008,06,30,01,12,22.60
2008,06,30,01,13,22.60
2008,06,30,01,14,22.50
2008,06,30,01,15,22.50
2008,06,30,01,16,22.40
2008,06,30,01,17,22.30
2008,06,30,01,18,22.20
2008,06,30,01,19,22.10
2008,06,30,01,20,22.10
2008,06,30,01,21,22.00
2008,06,30,01,22,22.00
2008,06,30,01,23,21.90
2008,06,30,01,24,21.90
2008,06,30,01,25,21.80
2008,06,30,01,26,21.80
2008,06,30,01,27,21.80
2008,06,30,01,28,21.70
2008,06,30,01,29,21.70
2008,06,30,01,30,21.60
2008,06,30,01,31,21.60
2008,06,30,01,32,21.60
2008,06,30,01,33,21.60
2008,06,30,01,34,21.50
2008,06,30,01,35,21.40
2008,06,30,01,36,21.30
2008,06,30,01,37,21.30
2008,06,30,01,38,21.30
2008,06,30,01,39,21.20
2008,06,30,01,40,21.20
2008,06,30,01,41,21.20
2008,06,30,01,42,21.10
2008,06,30,01,43,21.10
2008,06,30,01,44,21.00
2008,06,30,01,45,21.00
2008,06,30,01,46,21.00
2008,06,30,01,47,20.90
2008,06,30,01,48,20.90
2008,06,30,01,49,20.90
2008,06,30,01,50,20.90
2008,06,30,01,51,20.90
2008,06,30,01,52,20.90
2008,06,30,01,53,20.80
2008,06,30,01,54,20.80
2008,06,30,01,55,20.80
2008,06,30,01,56,20.80
2008,06,30,01,57,20.80
2008,06,30,01,58,20.80
2008,06,30,01,59,20.80
2008,06,30,02,00,20.70
2008,06,30,02,01,20.70
2008,06,30,02,02,20.70
2008,06,30,02,03,20.70
2008,06,30,02,04,20.70
2008,06,30,02,05,20.80
2008,06,30,02,06,20.80
2008,06,30,02,07,20.80
2008,06,30,02,08,21.00
2008,06,30,02,09,21.00
2008,06,30,02,10,21.10
2008,06,30,02,11,21.10
2008,06,30,02,12,21.10
2008,06,30,02,13,21.10
2008,06,30,02,14,21.10
2008,06,30,02,15,21.10
2008,06,30,02,16,21.10
2008,06,30,02,17,21.10
2008,06,30,02,18,21.10
2008,06,30,02,19,21.00
2008,06,30,02,20,21.00
2008,06,30,02,21,21.00
2008,06,30,02,22,20.90
2008,06,30,02,23,20.80
2008,06,30,02,24,20.80
2008,06,30,02,25,20.70
2008,06,30,02,26,20.60
2008,06,30,02,27,20.60
2008,06,30,02,28,20.50
2008,06,30,02,29,20.50
2008,06,30,02,30,20.40
2008,06,30,02,31,20.40
2008,06,30,02,32,20.40
2008,06,30,02,33,20.30
2008,06,30,02,34,20.30
2008,06,30,02,35,20.30
2008,06,30,02,36,20.20
2008,06,30,02,37,20.20
2008,06,30,02,38,20.20
2008,06,30,02,39,20.20
2008,06,30,02,40,20.10
2008,06,30,02,41,20.10
2008,06,30,02,42,20.10
2008,06,30,02,43,20.10
2008,06,30,02,44,20.10
2008,06,30,02,45,20.00
2008,06,30,02,46,19.90
2008,06,30,02,47,19.90
2008,06,30,02,48,19.90
2008,06,30,02,49,19.90
2008,06,30,02,50,19.90
2008,06,30,02,51,19.90
2008,06,30,02,52,20.00
2008,06,30,02,53,20.10
2008,06,30,02,54,20.10
2008,06,30,02,55,20.00
2008,06,30,02,56,19.90
2008,06,30,02,57,19.90
2008,06,30,02,58,19.90
2008,06,30,02,59,19.80
2008,06,30,03,00,19.80
2008,06,30,03,01,19.70
2008,06,30,03,02,19.70
2008,06,30,03,03,19.60
2008,06,30,03,04,19.50
2008,06,30,03,05,19.50
2008,06,30,03,06,19.40
2008,06,30,03,07,19.40
2008,06,30,03,08,19.30
2008,06,30,03,09,19.30
2008,06,30,03,10,19.20
2008,06,30,03,11,19.30
2008,06,30,03,12,19.30
2008,06,30,03,13,19.30
2008,06,30,03,14,19.40
2008,06,30,03,15,19.40
2008,06,30,03,16,19.50
2008,06,30,03,17,19.50
2008,06,30,03,18,19.50
2008,06,30,03,19,19.40
2008,06,30,03,20,19.40
2008,06,30,03,21,19.40
2008,06,30,03,22,19.40
2008,06,30,03,23,19.30
2008,06,30,03,24,19.30
2008,06,30,03,25,19.20
2008,06,30,03,26,19.30
2008,06,30,03,27,19.30
2008,06,30,03,28,19.30
2008,06,30,03,29,19.30
2008,06,30,03,30,19.30
2008,06,30,03,31,19.30
2008,06,30,03,32,19.30
2008,06,30,03,33,19.40
2008,06,30,03,34,19.40
2008,06,30,03,35,19.40
2008,06,30,03,36,19.40
2008,06,30,03,37,19.40
2008,06,30,03,38,19.40
2008,06,30,03,39,19.40
2008,06,30,03,40,19.30
2008,06,30,03,41,19.30
2008,06,30,03,42,19.30
2008,06,30,03,43,19.30
2008,06,30,03,44,19.30
2008,06,30,03,45,19.30
2008,06,30,03,46,19.30
2008,06,30,03,47,19.30
2008,06,30,03,48,19.30
2008,06,30,03,49,19.30
2008,06,30,03,50,19.30
2008,06,30,03,51,19.30
2008,06,30,03,52,19.20
2008,06,30,03,53,19.20
2008,06,30,03,54,19.20
2008,06,30,03,55,19.20
2008,06,30,03,56,19.10
2008,06,30,03,57,19.10
2008,06,30,03,58,19.10
2008,06,30,03,59,18.90
2008,06,30,04,00,18.90
2008,06,30,04,01,18.90
2008,06,30,04,02,18.90
2008,06,30,04,03,18.90
2008,06,30,04,04,18.90
2008,06,30,04,05,18.90
2008,06,30,04,06,18.90
2008,06,30,04,07,18.90
2008,06,30,04,08,18.90
2008,06,30,04,09,18.90
2008,06,30,04,10,19.10
2008,06,30,04,11,19.10
2008,06,30,04,12,19.10
2008,06,30,04,13,19.10
2008,06,30,04,14,19.10
2008,06,30,04,15,19.20
2008,06,30,04,16,19.20
2008,06,30,04,17,19.30
2008,06,30,04,18,19.30
2008,06,30,04,19,19.40
2008,06,30,04,20,19.40
2008,06,30,04,21,19.40
2008,06,30,04,22,19.50
2008,06,30,04,23,19.50
2008,06,30,04,24,19.50
2008,06,30,04,25,19.40
2008,06,30,04,26,19.50
2008,06,30,04,27,19.50
2008,06,30,04,28,19.50
2008,06,30,04,29,19.50
2008,06,30,04,30,19.50
2008,06,30,04,31,19.50
2008,06,30,04,32,19.60
2008,06,30,04,33,19.60
2008,06,30,04,34,19.60
2008,06,30,04,35,19.60
2008,06,30,04,36,19.60
2008,06,30,04,37,19.60
2008,06,30,04,38,19.60
2008,06,30,04,39,19.60
2008,06,30,04,40,19.60
2008,06,30,04,41,19.60
2008,06,30,04,42,19.60
2008,06,30,04,43,19.60
2008,06,30,04,44,19.60
2008,06,30,04,45,19.60
2008,06,30,04,46,19.60
2008,06,30,04,47,19.60
2008,06,30,04,48,19.60
2008,06,30,04,49,19.60
2008,06,30,04,50,19.50
2008,06,30,04,51,19.50
2008,06,30,04,52,19.50
2008,06,30,04,53,19.40
2008,06,30,04,54,19.40
2008,06,30,04,55,19.40
2008,06,30,04,56,19.30
2008,06,30,04,57,19.10
2008,06,30,04,58,19.10
2008,06,30,04,59,19.10
2008,06,30,05,00,19.10
2008,06,30,05,01,19.00
2008,06,30,05,02,18.90
2008,06,30,05,03,18.90
2008,06,30,05,04,18.90
2008,06,30,05,05,18.90
2008,06,30,05,06,18.90
2008,06,30,05,07,18.90
2008,06,30,05,08,18.90
2008,06,30,05,09,18.90
2008,06,30,05,10,18.90
2008,06,30,05,11,18.90
2008,06,30,05,12,19.00
2008,06,30,05,13,19.00
2008,06,30,05,14,18.90
2008,06,30,05,15,18.90
2008,06,30,05,16,18.90
2008,06,30,05,17,18.90
2008,06,30,05,18,18.90
2008,06,30,05,19,18.90
2008,06,30,05,20,18.90
2008,06,30,05,21,18.90
2008,06,30,05,22,18.90
2008,06,30,05,23,18.90
2008,06,30,05,24,18.90
2008,06,30,05,25,18.90
2008,06,30,05,26,18.90
2008,06,30,05,27,18.90
2008,06,30,05,28,18.90
2008,06,30,05,29,18.90
2008,06,30,05,30,18.90
2008,06,30,05,31,18.90
2008,06,30,05,32,18.90
2008,06,30,05,33,18.90
2008,06,30,05,34,18.90
2008,06,30,05,35,18.90
2008,06,30,05,36,18.90
2008,06,30,05,37,18.90
2008,06,30,05,38,18.90
2008,06,30,05,39,18.90
2008,06,30,05,40,18.90
2008,06,30,05,41,18.90
2008,06,30,05,42,18.90
2008,06,30,05,43,18.90
2008,06,30,05,44,18.90
2008,06,30,05,45,18.90
2008,06,30,05,46,18.90
2008,06,30,05,47,18.90
2008,06,30,05,48,18.90
2008,06,30,05,49,18.90
2008,06,30,05,50,18.90
2008,06,30,05,51,18.90
2008,06,30,05,52,18.90
2008,06,30,05,53,18.90
2008,06,30,05,54,18.90
2008,06,30,05,55,18.90
2008,06,30,05,56,18.90
2008,06,30,05,57,18.80
2008,06,30,05,58,18.80
2008,06,30,05,59,18.80
2008,06,30,06,00,18.90
2008,06,30,06,01,18.90
2008,06,30,06,02,18.90
2008,06,30,06,03,18.90
2008,06,30,06,04,18.90
2008,06,30,06,05,18.90
2008,06,30,06,06,18.90
2008,06,30,06,07,18.90
2008,06,30,06,08,18.90
2008,06,30,06,09,18.90
2008,06,30,06,10,18.90
2008,06,30,06,11,19.10
2008,06,30,06,12,19.10
2008,06,30,06,13,19.10
2008,06,30,06,14,19.10
2008,06,30,06,15,19.10
2008,06,30,06,16,19.10
2008,06,30,06,17,19.10
2008,06,30,06,18,19.10
2008,06,30,06,19,19.10
2008,06,30,06,20,19.10
2008,06,30,06,21,19.10
2008,06,30,06,22,19.20
2008,06,30,06,23,19.20
2008,06,30,06,24,19.20
2008,06,30,06,25,19.20
2008,06,30,06,26,19.20
2008,06,30,06,27,19.20
2008,06,30,06,28,19.30
2008,06,30,06,29,19.30
2008,06,30,06,30,19.40
2008,06,30,06,31,19.50
2008,06,30,06,32,19.60
2008,06,30,06,33,19.70
2008,06,30,06,34,19.70
2008,06,30,06,35,19.80
2008,06,30,06,36,19.80
2008,06,30,06,37,19.80
2008,06,30,06,38,19.90
2008,06,30,06,39,19.90
2008,06,30,06,40,19.90
2008,06,30,06,41,19.90
2008,06,30,06,42,20.00
2008,06,30,06,43,20.10
2008,06,30,06,44,20.20
2008,06,30,06,45,20.20
2008,06,30,06,46,20.20
2008,06,30,06,47,20.20
2008,06,30,06,48,20.20
2008,06,30,06,49,20.20
2008,06,30,06,50,20.20
2008,06,30,06,51,20.20
2008,06,30,06,52,20.20
2008,06,30,06,53,20.30
2008,06,30,06,54,20.30
2008,06,30,06,55,20.40
2008,06,30,06,56,20.40
2008,06,30,06,57,20.40
2008,06,30,06,58,20.40
2008,06,30,06,59,20.50
2008,06,30,07,00,20.50
2008,06,30,07,01,20.40
2008,06,30,07,02,20.50
2008,06,30,07,03,20.50
2008,06,30,07,04,20.50
2008,06,30,07,05,20.50
2008,06,30,07,06,20.50
2008,06,30,07,07,20.60
2008,06,30,07,08,20.60
2008,06,30,07,09,20.60
2008,06,30,07,10,20.60
2008,06,30,07,11,20.60
2008,06,30,07,12,20.60
2008,06,30,07,13,20.70
2008,06,30,07,14,20.70
2008,06,30,07,15,20.70
2008,06,30,07,16,20.70
2008,06,30,07,17,20.70
2008,06,30,07,18,20.70
2008,06,30,07,19,20.80
2008,06,30,07,20,20.80
2008,06,30,07,21,20.80
2008,06,30,07,22,20.80
2008,06,30,07,23,20.90
2008,06,30,07,24,20.90
2008,06,30,07,25,20.90
2008,06,30,07,26,20.90
2008,06,30,07,27,20.90
2008,06,30,07,28,21.00
2008,06,30,07,29,21.00
2008,06,30,07,30,21.00
2008,06,30,07,31,21.00
2008,06,30,07,32,21.10
2008,06,30,07,33,21.10
2008,06,30,07,34,21.20
2008,06,30,07,35,21.20
2008,06,30,07,36,21.30
2008,06,30,07,37,21.30
2008,06,30,07,38,21.30
2008,06,30,07,39,21.30
2008,06,30,07,40,21.30
2008,06,30,07,41,21.30
2008,06,30,07,42,21.40
2008,06,30,07,43,21.50
2008,06,30,07,44,21.60
2008,06,30,07,45,21.60
2008,06,30,07,46,21.70
2008,06,30,07,47,21.90
2008,06,30,07,48,22.00
2008,06,30,07,49,22.10
2008,06,30,07,50,22.20
2008,06,30,07,51,22.20
2008,06,30,07,52,22.30
2008,06,30,07,53,22.40
2008,06,30,07,54,22.50
2008,06,30,07,55,22.60
2008,06,30,07,56,22.70
2008,06,30,07,57,22.80
2008,06,30,07,58,22.90
2008,06,30,07,59,22.90
2008,06,30,08,00,22.90
2008,06,30,08,01,22.90
2008,06,30,08,02,22.80
2008,06,30,08,03,22.80
2008,06,30,08,04,22.80
2008,06,30,08,05,22.80
2008,06,30,08,06,22.80
2008,06,30,08,07,22.90
2008,06,30,08,08,22.90
2008,06,30,08,09,23.00
2008,06,30,08,10,23.10
2008,06,30,08,11,23.10
2008,06,30,08,12,23.20
2008,06,30,08,13,23.20
2008,06,30,08,14,23.30
2008,06,30,08,15,23.30
2008,06,30,08,16,23.30
2008,06,30,08,17,23.30
2008,06,30,08,18,23.30
2008,06,30,08,19,23.30
2008,06,30,08,20,23.30
2008,06,30,08,21,23.30
2008,06,30,08,22,23.30
2008,06,30,08,23,23.30
2008,06,30,08,24,23.20
2008,06,30,08,25,23.20
2008,06,30,08,26,23.20
2008,06,30,08,27,23.30
2008,06,30,08,28,23.30
2008,06,30,08,29,23.30
2008,06,30,08,30,23.20
2008,06,30,08,31,23.20
2008,06,30,08,32,23.20
2008,06,30,08,33,23.20
2008,06,30,08,34,23.20
2008,06,30,08,35,23.30
2008,06,30,08,36,23.30
2008,06,30,08,37,23.30
2008,06,30,08,38,23.30
2008,06,30,08,39,23.30
2008,06,30,08,40,23.40
2008,06,30,08,41,23.50
2008,06,30,08,42,23.60
2008,06,30,08,43,23.60
2008,06,30,08,44,23.70
2008,06,30,08,45,23.70
2008,06,30,08,46,23.70
2008,06,30,08,47,23.70
2008,06,30,08,48,23.80
2008,06,30,08,49,23.80
2008,06,30,08,50,23.90
2008,06,30,08,51,23.90
2008,06,30,08,52,23.90
2008,06,30,08,53,23.90
2008,06,30,08,54,23.90
2008,06,30,08,55,23.90
2008,06,30,08,56,23.90
2008,06,30,08,57,23.80
2008,06,30,08,58,23.90
2008,06,30,08,59,23.90
2008,06,30,09,00,24.00
2008,06,30,09,01,24.10
2008,06,30,09,02,24.10
2008,06,30,09,03,24.10
2008,06,30,09,04,24.10
2008,06,30,09,05,24.20
2008,06,30,09,06,24.20
2008,06,30,09,07,24.20
2008,06,30,09,08,24.30
2008,06,30,09,09,24.30
2008,06,30,09,10,24.30
2008,06,30,09,11,24.10
2008,06,30,09,12,24.00
2008,06,30,09,13,23.90
2008,06,30,09,14,23.80
2008,06,30,09,15,23.70
2008,06,30,09,16,23.70
2008,06,30,09,17,23.70
2008,06,30,09,18,23.60
2008,06,30,09,19,23.60
2008,06,30,09,20,23.40
2008,06,30,09,21,23.30
2008,06,30,09,22,23.10
2008,06,30,09,23,23.00
2008,06,30,09,24,22.90
2008,06,30,09,25,22.90
2008,06,30,09,26,22.90
2008,06,30,09,27,22.90
2008,06,30,09,28,23.00
2008,06,30,09,29,23.20
2008,06,30,09,30,23.30
2008,06,30,09,31,23.30
2008,06,30,09,32,23.50
2008,06,30,09,33,23.60
2008,06,30,09,34,23.70
2008,06,30,09,35,23.70
2008,06,30,09,36,23.60
2008,06,30,09,37,23.60
2008,06,30,09,38,23.60
2008,06,30,09,39,23.60
2008,06,30,09,40,23.60
2008,06,30,09,41,23.60
2008,06,30,09,42,23.70
2008,06,30,09,43,23.70
2008,06,30,09,44,23.70
2008,06,30,09,45,23.80
2008,06,30,09,46,23.80
2008,06,30,09,47,23.80
2008,06,30,09,48,23.90
2008,06,30,09,49,23.90
2008,06,30,09,50,24.00
2008,06,30,09,51,24.10
2008,06,30,09,52,23.90
2008,06,30,09,53,24.10
2008,06,30,09,54,24.10
2008,06,30,09,55,24.10
2008,06,30,09,56,24.20
2008,06,30,09,57,24.30
2008,06,30,09,58,24.20
2008,06,30,09,59,24.20
2008,06,30,10,00,24.20
2008,06,30,10,01,24.20
2008,06,30,10,02,24.10
2008,06,30,10,03,24.00
2008,06,30,10,04,23.90
2008,06,30,10,05,23.70
2008,06,30,10,06,23.60
2008,06,30,10,07,23.40
2008,06,30,10,08,23.30
2008,06,30,10,09,23.30
2008,06,30,10,10,23.20
2008,06,30,10,11,23.10
2008,06,30,10,12,23.10
2008,06,30,10,13,23.20
2008,06,30,10,14,23.20
2008,06,30,10,15,23.30
2008,06,30,10,16,23.20
2008,06,30,10,17,23.20
2008,06,30,10,18,23.20
2008,06,30,10,19,23.20
2008,06,30,10,20,23.30
2008,06,30,10,21,23.30
2008,06,30,10,22,23.30
2008,06,30,10,23,23.50
2008,06,30,10,24,23.60
2008,06,30,10,25,23.70
2008,06,30,10,26,23.90
2008,06,30,10,27,24.10
2008,06,30,10,28,24.20
2008,06,30,10,29,24.40
2008,06,30,10,30,24.50
2008,06,30,10,31,24.70
2008,06,30,10,32,24.90
2008,06,30,10,33,25.00
2008,06,30,10,34,25.10
2008,06,30,10,35,25.10
2008,06,30,10,36,25.20
2008,06,30,10,37,25.20
2008,06,30,10,38,25.20
2008,06,30,10,39,25.10
2008,06,30,10,40,25.10
2008,06,30,10,41,25.10
2008,06,30,10,42,25.00
2008,06,30,10,43,24.90
2008,06,30,10,44,24.80
2008,06,30,10,45,24.80
2008,06,30,10,46,24.70
2008,06,30,10,47,24.60
2008,06,30,10,48,24.60
2008,06,30,10,49,24.60
2008,06,30,10,50,24.60
2008,06,30,10,51,24.70
2008,06,30,10,52,24.80
2008,06,30,10,53,24.90
2008,06,30,10,54,25.00
2008,06,30,10,55,25.10
2008,06,30,10,56,25.00
2008,06,30,10,57,24.90
2008,06,30,10,58,24.70
2008,06,30,10,59,24.50
2008,06,30,11,00,24.30
2008,06,30,11,01,24.20
2008,06,30,11,02,24.20
2008,06,30,11,03,24.10
2008,06,30,11,04,24.10
2008,06,30,11,05,24.00
2008,06,30,11,06,23.90
2008,06,30,11,07,23.90
2008,06,30,11,08,23.90
2008,06,30,11,09,23.90
2008,06,30,11,10,23.90
2008,06,30,11,11,23.90
2008,06,30,11,12,23.90
2008,06,30,11,13,24.10
2008,06,30,11,14,24.10
2008,06,30,11,15,24.20
2008,06,30,11,16,24.30
2008,06,30,11,17,24.40
2008,06,30,11,18,24.40
2008,06,30,11,19,24.50
2008,06,30,11,20,24.40
2008,06,30,11,21,24.40
2008,06,30,11,22,24.40
2008,06,30,11,23,24.30
2008,06,30,11,24,24.30
2008,06,30,11,25,24.30
2008,06,30,11,26,24.30
2008,06,30,11,27,24.30
2008,06,30,11,28,24.30
2008,06,30,11,29,24.20
2008,06,30,11,30,24.30
2008,06,30,11,31,24.30
2008,06,30,11,32,24.30
2008,06,30,11,33,24.20
2008,06,30,11,34,24.10
2008,06,30,11,35,24.00
2008,06,30,11,36,23.80
2008,06,30,11,37,23.70
2008,06,30,11,38,23.60
2008,06,30,11,39,23.50
2008,06,30,11,40,23.40
2008,06,30,11,41,23.40
2008,06,30,11,42,23.40
2008,06,30,11,43,23.40
2008,06,30,11,44,23.50
2008,06,30,11,45,23.60
2008,06,30,11,46,23.70
2008,06,30,11,47,23.70
2008,06,30,11,48,23.70
2008,06,30,11,49,23.80
2008,06,30,11,50,23.90
2008,06,30,11,51,24.00
2008,06,30,11,52,24.10
2008,06,30,11,53,24.10
2008,06,30,11,54,24.10
2008,06,30,11,55,23.90
2008,06,30,11,56,23.90
2008,06,30,11,57,23.90
2008,06,30,11,58,23.90
2008,06,30,11,59,23.90
2008,06,30,12,00,24.10
2008,06,30,12,01,24.10
2008,06,30,12,02,23.90
2008,06,30,12,03,23.90
2008,06,30,12,04,23.90
2008,06,30,12,05,24.10
2008,06,30,12,06,24.10
2008,06,30,12,07,24.20
2008,06,30,12,08,24.30
2008,06,30,12,09,24.30
2008,06,30,12,10,24.40
2008,06,30,12,11,24.50
2008,06,30,12,12,24.60
2008,06,30,12,13,24.70
2008,06,30,12,14,24.80
2008,06,30,12,15,24.90
2008,06,30,12,16,25.00
2008,06,30,12,17,25.20
2008,06,30,12,18,25.20
2008,06,30,12,22,25.50
2008,06,30,12,23,25.60
2008,06,30,12,24,25.70
2008,06,30,12,25,25.80
2008,06,30,12,26,25.70
2008,06,30,12,27,25.60
2008,06,30,12,28,25.60
2008,06,30,12,29,25.60
2008,06,30,12,30,25.60
2008,06,30,12,31,25.50
2008,06,30,12,32,25.40
2008,06,30,12,33,25.40
2008,06,30,12,34,25.40
2008,06,30,12,35,25.50
2008,06,30,12,36,25.50
2008,06,30,12,37,25.60
2008,06,30,12,38,25.60
2008,06,30,12,39,25.60
2008,06,30,12,40,25.60
2008,06,30,12,41,25.70
2008,06,30,12,42,25.70
2008,06,30,12,43,25.70
2008,06,30,12,44,25.70
2008,06,30,12,45,25.80
2008,06,30,12,46,25.90
2008,06,30,12,47,25.80
2008,06,30,12,48,25.80
2008,06,30,12,49,25.80
2008,06,30,12,50,25.80
2008,06,30,12,51,25.70
2008,06,30,12,52,25.80
2008,06,30,12,53,25.90
2008,06,30,12,54,26.00
2008,06,30,12,55,26.00
2008,06,30,12,56,26.00
2008,06,30,12,57,26.10
2008,06,30,12,58,26.10
2008,06,30,12,59,26.20
2008,06,30,13,00,26.40
2008,06,30,13,01,26.50
2008,06,30,13,02,26.60
2008,06,30,13,03,26.60
2008,06,30,13,04,26.70
2008,06,30,13,05,26.70
2008,06,30,13,06,26.70
2008,06,30,13,07,26.70
2008,06,30,13,08,26.60
2008,06,30,13,09,26.60
2008,06,30,13,10,26.60
2008,06,30,13,11,26.60
2008,06,30,13,12,26.70
2008,06,30,13,13,26.70
2008,06,30,13,14,26.70
2008,06,30,13,15,26.60
2008,06,30,13,16,26.60
2008,06,30,13,17,26.60
2008,06,30,13,18,26.70
2008,06,30,13,19,26.70
2008,06,30,13,20,26.70
2008,06,30,13,21,26.70
2008,06,30,13,22,26.80
2008,06,30,13,23,26.80
2008,06,30,13,24,26.80
2008,06,30,13,25,26.70
2008,06,30,13,26,26.70
2008,06,30,13,27,26.70
2008,06,30,13,28,26.70
2008,06,30,13,29,26.80
2008,06,30,13,30,26.90
2008,06,30,13,31,27.00
2008,06,30,13,32,27.10
2008,06,30,13,33,27.20
2008,06,30,13,34,27.20
2008,06,30,13,35,27.10
2008,06,30,13,36,26.90
2008,06,30,13,37,26.80
2008,06,30,13,38,26.80
2008,06,30,13,39,26.80
2008,06,30,13,40,26.90
2008,06,30,13,41,27.00
2008,06,30,13,42,27.10
2008,06,30,13,43,27.20
2008,06,30,13,44,27.30
2008,06,30,13,45,27.30
2008,06,30,13,46,27.40
2008,06,30,13,47,27.50
2008,06,30,13,48,27.60
2008,06,30,13,49,27.70
2008,06,30,13,50,27.70
2008,06,30,13,51,27.80
2008,06,30,13,52,27.90
2008,06,30,13,53,27.90
2008,06,30,13,54,27.90
2008,06,30,13,55,27.90
2008,06,30,13,56,27.90
2008,06,30,13,57,27.80
2008,06,30,13,58,27.80
2008,06,30,13,59,27.70
2008,06,30,14,00,27.70
2008,06,30,14,01,27.80
2008,06,30,14,02,27.80
2008,06,30,14,03,27.80
2008,06,30,14,04,27.90
2008,06,30,14,05,28.00
2008,06,30,14,06,27.80
2008,06,30,14,07,27.70
2008,06,30,14,08,27.60
2008,06,30,14,09,27.60
2008,06,30,14,10,27.60
2008,06,30,14,11,27.60
2008,06,30,14,12,27.60
2008,06,30,14,13,27.50
2008,06,30,14,14,27.40
2008,06,30,14,15,27.40
2008,06,30,14,16,27.60
2008,06,30,14,17,27.70
2008,06,30,14,18,27.80
2008,06,30,14,19,28.00
2008,06,30,14,20,28.20
2008,06,30,14,21,28.30
2008,06,30,14,22,28.30
2008,06,30,14,23,28.30
2008,06,30,14,24,28.40
2008,06,30,14,25,28.40
2008,06,30,14,26,28.40
2008,06,30,14,27,28.40
2008,06,30,14,28,28.40
2008,06,30,14,29,28.40
2008,06,30,14,30,28.40
2008,06,30,14,31,28.30
2008,06,30,14,32,28.20
2008,06,30,14,33,28.10
2008,06,30,14,34,28.10
2008,06,30,14,35,28.10
2008,06,30,14,36,28.10
2008,06,30,14,37,28.10
2008,06,30,14,38,28.10
2008,06,30,14,39,28.00
2008,06,30,14,40,27.90
2008,06,30,14,41,27.80
2008,06,30,14,42,27.60
2008,06,30,14,43,27.50
2008,06,30,14,44,27.40
2008,06,30,14,45,27.40
2008,06,30,14,46,27.30
2008,06,30,14,47,27.30
2008,06,30,14,48,27.30
2008,06,30,14,49,27.30
2008,06,30,14,50,27.30
2008,06,30,14,51,27.40
2008,06,30,14,52,27.40
2008,06,30,14,53,27.40
2008,06,30,14,54,27.40
2008,06,30,14,55,27.50
2008,06,30,14,56,27.60
2008,06,30,14,57,27.60
2008,06,30,14,58,27.70
2008,06,30,14,59,27.90
2008,06,30,15,00,27.90
2008,06,30,15,01,27.90
2008,06,30,15,02,27.90
2008,06,30,15,03,28.00
2008,06,30,15,04,28.00
2008,06,30,15,05,28.00
2008,06,30,15,06,28.00
2008,06,30,15,07,28.10
2008,06,30,15,08,28.30
2008,06,30,15,09,28.40
2008,06,30,15,10,28.60
2008,06,30,15,11,28.70
2008,06,30,15,12,28.80
2008,06,30,15,13,28.90
2008,06,30,15,14,28.80
2008,06,30,15,15,28.80
2008,06,30,15,16,28.80
2008,06,30,15,17,28.80
2008,06,30,15,18,28.90
2008,06,30,15,19,29.00
2008,06,30,15,20,29.10
2008,06,30,15,21,29.20
2008,06,30,15,22,29.20
2008,06,30,15,23,29.20
2008,06,30,15,24,29.20
2008,06,30,15,25,29.10
2008,06,30,15,26,29.10
2008,06,30,15,27,29.00
2008,06,30,15,28,28.90
2008,06,30,15,29,28.90
2008,06,30,15,30,28.90
2008,06,30,15,31,28.90
2008,06,30,15,32,28.90
2008,06,30,15,33,28.90
2008,06,30,15,34,28.90
2008,06,30,15,35,28.90
2008,06,30,15,36,28.90
2008,06,30,15,37,28.80
2008,06,30,15,38,28.70
2008,06,30,15,39,28.60
2008,06,30,15,40,28.50
2008,06,30,15,41,28.40
2008,06,30,15,42,28.30
2008,06,30,15,43,28.20
2008,06,30,15,44,28.20
2008,06,30,15,45,28.10
2008,06,30,15,46,28.00
2008,06,30,15,47,27.90
2008,06,30,15,48,27.90
2008,06,30,15,49,27.80
2008,06,30,15,50,27.70
2008,06,30,15,51,27.60
2008,06,30,15,52,27.60
2008,06,30,15,53,27.60
2008,06,30,15,54,27.70
2008,06,30,15,55,27.70
2008,06,30,15,56,27.70
2008,06,30,15,57,27.70
2008,06,30,15,58,27.70
2008,06,30,15,59,27.80
2008,06,30,16,00,27.80
2008,06,30,16,01,27.90
2008,06,30,16,02,27.90
2008,06,30,16,03,27.80
2008,06,30,16,04,27.80
2008,06,30,16,05,27.70
2008,06,30,16,06,27.70
2008,06,30,16,07,27.70
2008,06,30,16,08,27.70
2008,06,30,16,09,27.80
2008,06,30,16,10,27.80
2008,06,30,16,11,27.80
2008,06,30,16,12,27.80
2008,06,30,16,13,27.80
2008,06,30,16,14,27.90
2008,06,30,16,15,28.10
2008,06,30,16,16,28.20
2008,06,30,16,17,28.50
2008,06,30,16,18,28.60
2008,06,30,16,19,28.70
2008,06,30,16,20,28.90
2008,06,30,16,21,29.00
2008,06,30,16,22,29.10
2008,06,30,16,23,29.20
2008,06,30,16,24,29.20
2008,06,30,16,25,29.20
2008,06,30,16,26,29.20
2008,06,30,16,27,29.20
2008,06,30,16,28,29.20
2008,06,30,16,29,29.00
2008,06,30,16,30,28.90
2008,06,30,16,31,28.80
2008,06,30,16,32,28.80
2008,06,30,16,33,28.80
2008,06,30,16,34,28.80
2008,06,30,16,35,28.80
2008,06,30,16,36,28.90
2008,06,30,16,37,29.00
2008,06,30,16,38,29.20
2008,06,30,16,39,29.20
2008,06,30,16,40,29.30
2008,06,30,16,41,29.30
2008,06,30,16,42,29.40
2008,06,30,16,43,29.40
2008,06,30,16,44,29.30
2008,06,30,16,45,29.30
2008,06,30,16,46,29.30
2008,06,30,16,47,29.30
2008,06,30,16,48,29.20
2008,06,30,16,49,29.20
2008,06,30,16,50,29.30
2008,06,30,16,51,29.30
2008,06,30,16,52,29.30
2008,06,30,16,53,29.40
2008,06,30,16,54,29.40
2008,06,30,16,55,29.50
2008,06,30,16,56,29.50
2008,06,30,16,57,29.50
2008,06,30,16,58,29.50
2008,06,30,16,59,29.40
2008,06,30,17,00,29.40
2008,06,30,17,01,29.30
2008,06,30,17,02,29.30
2008,06,30,17,03,29.20
2008,06,30,17,04,29.10
2008,06,30,17,05,28.90
2008,06,30,17,06,28.90
2008,06,30,17,07,28.90
2008,06,30,17,08,28.90
2008,06,30,17,09,28.80
2008,06,30,17,10,28.80
2008,06,30,17,11,28.80
2008,06,30,17,12,28.80
2008,06,30,17,13,28.90
2008,06,30,17,14,28.90
2008,06,30,17,15,28.90
2008,06,30,17,16,29.00
2008,06,30,17,17,29.10
2008,06,30,17,18,29.20
2008,06,30,17,19,29.20
2008,06,30,17,20,29.30
2008,06,30,17,21,29.30
2008,06,30,17,22,29.30